Regional Weather Roundup
Issued by NWS

Home | Current Version | Previous Version | Text Only | Print | Product List | Glossary Off
Versions: 1 2 3 4 5 6 7 8 9 10 11 12 13 14 15 16 17 18 19 20 21 22 23 24 25 26 27 28 29 30 31 32 33 34 35 36 37 38 39 40 41 42 43 44 45 46 47 48 49 50

000
ASUS43 KMKX 010600
RWRWI

WISCONSIN REGIONAL WEATHER ROUNDUP
NATIONAL WEATHER SERVICE MILWAUKEE/SULLIVAN WI
1200 AM CST SUN FEB 01 2015

NOTE: "FAIR" INDICATES FEW OR NO CLOUDS BELOW 12,000 FEET WITH NO
SIGNIFICANT WEATHER AND/OR OBSTRUCTIONS TO VISIBILITY.

WIZ001-002-006>008-014>016-023>028-010700-
NORTHWEST WISCONSIN

CITY           SKY/WX    TMP DP  RH WIND       PRES   REMARKS
SUPERIOR ARPT  CLOUDY     9  -1  64 NE9       30.39S WCI  -4
ASHLAND        CLOUDY    15   6  67 NE12      30.35R WCI   2
6HR MIN TEMP:  13; 6HR MAX TEMP:  17; 6HR PCP: TRACE;

HAYWARD        CLOUDY    13   5  70 NE7       30.29R WCI   3
6HR MIN TEMP:  12; 6HR MAX TEMP:  17;

SIREN          CLOUDY    15   5  66 NE8       30.30R WCI   4
CUMBERLAND     CLOUDY    16   7  67 NE15G21   30.23F WCI   1
RICE LAKE      CLOUDY    17   8  70 NE12      30.26S WCI   4
CHETEK         CLOUDY    16   8  71 N8        30.24S WCI   5
LADYSMITH      CLOUDY    15   6  67 NE13G18   30.27R WCI   1
EAU CLAIRE     NOT AVBL
MENOMONIE      CLOUDY    20  10  65 NE12      30.22F WCI   8
NEW RICHMOND   CLOUDY    18   9  68 NE12G17   30.23S WCI   5
OSCEOLA        CLOUDY    19  10  67 NE14G20   30.27S WCI   5
$$

WIZ003>005-009-010-017-018-010700-
NORTH CENTRAL WISCONSIN

CITY           SKY/WX    TMP DP  RH WIND       PRES   REMARKS
MANITOWISH WTR CLOUDY     7   0  75 E9        30.26R WCI  -7
ARBOR VITAE    CLOUDY    11   3  70 E9        30.25R WCI  -1
WOODRUFF       CLOUDY    11   3  70 E9        30.25R WCI  -1
RHINELANDER    CLOUDY     8   0  69 NE9G18    30.25R WCI  -5
6HR MIN TEMP:   8; 6HR MAX TEMP:  17;

EAGLE RIVER    CLOUDY     7  -1  70 E10       30.25R WCI  -7
LAND O LAKES   CLOUDY     6   1  81 NE5       30.27R WCI  -3
PHILLIPS       CLOUDY    10   2  70 NE10      30.25R WCI  -3
TOMAHAWK       CLOUDY    12   4  70 E5        30.25R WCI   4
MEDFORD        CLOUDY    15   7  71 NE14      30.20S WCI   0
MERRILL        CLOUDY    14   6  69 E12G17    30.24R WCI   1
$$

WIZ029-030-035-036-043>047-010700-
CENTRAL WISCONSIN

CITY           SKY/WX    TMP DP  RH WIND       PRES   REMARKS
WAUSAU         CLOUDY    16   7  67 NE9       30.22R WCI   4
6HR MIN TEMP:  16; 6HR MAX TEMP:  24;

MOSINEE        CLOUDY    19  12  73 NE10      30.22R WCI   8
MARSHFIELD     CLOUDY    20  11  68 NE17      30.19S WCI   5
6HR MIN TEMP:  20; 6HR MAX TEMP:  26;

STEVENS POINT  CLOUDY    20  12  71 E13G20    30.22R WCI   7
WAUPACA        CLOUDY    21  12  68 E12       30.26R WCI   9
WAUTOMA        NOT AVBL
WISC RAPIDS    CLOUDY    23  16  74 E16       30.21S WCI  10
6HR MIN TEMP:  23; 6HR MAX TEMP:  27;

CAMP DOUGLAS   MIX PCPN  25  25 100 E10       30.17F FOG     WCI  15
$$

WIZ011>013-019>022-031-037>040-048>050-010700-
NORTHEAST WISCONSIN

CITY           SKY/WX    TMP DP  RH WIND       PRES   REMARKS
ANTIGO         CLOUDY    12   6  75 NE9       30.23R WCI   0
SHAWANO        CLOUDY    18   8  65 NE14G23   30.29R WCI   4
OCONTO         CLOUDY    14   5  67 MISG      30.32R
STURGEON BAY   CLOUDY    14   3  62 N10       30.32R WCI   1
6HR MIN TEMP:  14; 6HR MAX TEMP:  25;

GREEN BAY      CLOUDY    16   8  71 NE23      30.30R WCI  -2
6HR MIN TEMP:  16; 6HR MAX TEMP:  27; 6HR PCP: TRACE;

MANITOWOC      NOT AVBL
APPLETON       CLOUDY    18  10  73 NE22G31   30.26R WCI   0
CLINTONVILLE   CLOUDY    19   9  63 E13       30.27R WCI   7
OSHKOSH        CLOUDY    20  11  68 NE15G23   30.24R WCI   6
6HR MIN TEMP:  20; 6HR MAX TEMP:  27;

$$

WIZ032>034-041-042-053>061-010700-
SOUTHWEST WISCONSIN

CITY           SKY/WX    TMP DP  RH WIND       PRES   REMARKS
LA CROSSE      LGT SNOW  28  23  81 NE8       30.15F WCI  20
6HR MIN TEMP:  28; 6HR MAX TEMP:  31; 6HR PCP:  0.06;

SPARTA         LGT SNOW  26  22  82 E7        30.18S WCI  19
VIROQUA        CLOUDY    25  25 100 E14G22    30.11S VSB 1   WCI  13
BOSCOBEL       LGT SNOW  28  24  85 NE9       30.13F FOG     WCI  19
6HR MIN TEMP:  28; 6HR MAX TEMP:  33; 6HR PCP:  0.12;

PRAIRIE DU CHI LGT SNOW  29  26  88 E8        30.11S WCI  21
PLATTEVILLE    CLOUDY    29  28  96 NE14      30.09F VSB 1   WCI  18
$$

WIZ056-057-062-063-064-067-068-010700-
SOUTH CENTRAL WISCONSIN

CITY           SKY/WX    TMP DP  RH WIND       PRES   REMARKS
REEDSBURG      LGT SNOW  25  23  93 E9        30.16F WCI  15
BARABOO/DELLS  LGT SNOW  24  22  90 E13       30.16F VSB 3/4 WCI  13
LONE ROCK      LGT SNOW  27  23  86 E15       30.14F VSB 1   WCI  15
MINERAL POINT  LGT SNOW  28  27  93 E13       30.09F WCI  18
MADISON        LGT SNOW  26  23  88 NE13      30.15F FOG     WCI  15
6HR MIN TEMP:  26; 6HR MAX TEMP:  31; 6HR PCP:  0.13;

MIDDLETON      CLOUDY    28  26  94 E10       30.16S VSB 1   WCI  18
WATERTOWN      LGT SNOW  26  26 100 NE7       30.17S WCI  18
MONROE         LGT SNOW  30  28  93 E14G20    30.10F WCI  20
JANESVILLE     LGT SNOW  30  30 100 E13       30.14S WCI  20
$$

WIZ051-052-058>065-066-070>072-010700-
SOUTHEAST WISCONSIN

CITY           SKY/WX    TMP DP  RH WIND       PRES   REMARKS
MILWAUKEE      LGT SNOW  29  25  85 E14       30.19R VSB 1   WCI  18
6HR MIN TEMP:  29; 6HR MAX TEMP:  32; 6HR PCP:  0.13;

WAUKESHA       LGT SNOW  27  27 100 NE5       30.18S VSB 1   WCI  21
MILWAUKEE/TIMM LGT SNOW  30  27  86 NE7       30.20R WCI  23
RACINE         LGT SNOW  30  27  88 NE14      30.19S VSB 3/4 WCI  19
6HR MIN TEMP:  30; 6HR MAX TEMP:  32; 6HR PCP: TRACE;

BURLINGTON     LGT SNOW  28  27  98 NE6       30.16S WCI  21
KENOSHA        LGT SNOW  30  28  92 NE14      30.16F VSB 1   WCI  19
6HR MIN TEMP:  30; 6HR MAX TEMP:  32; 6HR PCP: TRACE;

FOND DU LAC    LGT SNOW  23  16  74 NE13      30.23R WCI  11
6HR MIN TEMP:  23; 6HR MAX TEMP:  27; 6HR PCP: TRACE;

SHEBOYGAN      CLOUDY    24  18  77 NE20G26   30.23R WCI  10
6HR MIN TEMP:  24; 6HR MAX TEMP:  28;

WEST BEND      LGT SNOW  27  21  80 NE13G20   30.20R WCI  16
JUNEAU         LGT SNOW  25  23  91 NE9       30.19S WCI  15
$$

LSZ147-162-010700-
LAKE SUPERIOR

STATION/POSITION TIME  TEMP    WIND        PRES    WAVE
                       AIR SEA DIR/SP/G            HT/PER
                 (UTC) (F)     (DEG/KT/KT) (MB)    (FT/S)
DEVILS ISLAND    0500   13      50/ 23/ 28 1030.2R
PORT WING        0500   16      60/ 11/ 18 1028.1R
SAXON HARBOR     0500   15      70/  2/ 10 1027.4R
$$

LMZ867-665-643>646-010700-
LAKE MICHIGAN

STATION/POSITION TIME  TEMP    WIND        PRES    WAVE
                       AIR SEA DIR/SP/G            HT/PER
                 (UTC) (F)     (DEG/KT/KT) (MB)    (FT/S)
NORTHPORT PIER   0526   15     360/ 18/ 24 1026.1F
SISTER BAY       0513   14     360/ 14/ 18   N/A
KEWAUNEE LAKESHO 0500   20      20/ 12/ 22 1024.0R
SHEBOYGAN LAKESH 0500   27      40/ 26/ 28 1024.4R
PORT WASHINGTON  0540   29      50/ 19/ 24 1023.7R
MILWAUKEE LAKESH 0500   30      70/ 17/ 19   N/A
KENOSHA   LAKESH 0500   31      60/ 11/ 12 1021.7S
$$

TC  - TEMPERATURE IN CELSIUS
VSB - VISIBILITY IN STATUTE MILES
WCI - WIND CHILL INDEX
HX  - HEAT INDEX



USA.gov is the U.S. government's official web portal to all federal, state and local government web resources and services.